Terminal Aerodrome Forecast
Issued by NWS

Home | Current Version | Previous Version | Text Only | Print | Product List | Glossary On
Versions: 1 2 3 4 5 6 7 8 9 10 11 12 13 14 15 16 17 18 19 20 21 22 23 24 25 26 27 28 29 30 31 32
000
FTUS43 KDDC 310255 AAB
TAFGCK
TAF AMD
KGCK 310255Z 3103/3124 15008KT P6SM OVC200
      TEMPO 3103/3106 VRB15G35KT 4SM -TSRA OVC090CB
     FM310600 12009KT P6SM VCTS OVC090CB
      TEMPO 3109/3113 VRB15G35KT 4SM -TSRA OVC040CB
     FM311300 03015G25KT 3SM -RA OVC030
     FM311800 04018G28KT 4SM -SHRA OVC030=

USA.gov is the U.S. government's official web portal to all federal, state and local government web resources and services.